Theta_e
319 320 320 319 320 321 321 321 322 322 322 322 323 323 323 323 323 323 323 323 324 325 325 325 326 326 327 327 327 327 325 310 311 308 305 307 319 331 333 335 335 335 331 308 306 306 303 302 305 302 304 302 303 302 305 305 302 295 293 286 287 285 288 290 291 291 294 293 292 293 294 295 292 294 296 298 298 295 295 296 298 297 298 299 300 303 306 309
319 319 319 319 320 320 320 320 321 321 322 322 323 323 323 323 323 323 323 323 323 324 324 325 325 326 327 327 327 327 319 311 308 308 309 321 337 339 337 337 336 335 321 307 304 301 301 302 302 302 302 301 305 302 306 303 303 295 290 288 286 286 291 293 293 294 294 292 293 294 292 293 295 295 296 296 292 292 294 296 295 297 297 298 300 299 304 308
319 319 318 319 319 320 320 320 321 321 322 322 323 323 323 322 322 323 323 323 323 323 324 325 325 325 326 326 326 326 317 311 302 300 307 335 337 339 340 337 334 330 309 307 303 303 302 302 300 301 300 298 299 300 302 301 303 296 292 289 287 291 292 293 295 297 294 295 294 294 294 295 296 296 297 296 294 293 293 296 296 295 298 297 296 296 304 307
319 318 318 318 319 320 320 320 321 321 322 322 323 323 322 322 322 323 323 323 323 323 323 324 324 325 325 325 326 320 313 303 297 302 313 336 338 338 340 337 334 326 310 307 303 303 301 300 299 301 299 298 294 302 300 301 299 296 294 289 291 292 294 296 295 295 295 294 295 295 294 294 295 295 297 295 295 296 295 295 297 298 299 299 298 297 304 304
318 318 318 318 318 320 320 320 321 321 322 322 323 323 322 322 323 323 324 323 323 323 324 324 324 324 324 325 325 315 308 292 297 307 320 338 336 340 337 337 333 315 309 308 305 303 302 300 299 300 298 293 294 297 297 298 299 297 296 295 294 294 294 297 297 297 295 295 294 293 293 296 296 297 296 296 293 295 297 298 296 298 299 299 299 298 300 302
318 318 318 318 318 319 320 320 321 322 322 323 323 323 323 323 323 323 323 324 323 324 324 324 324 324 324 324 317 311 303 291 303 308 330 337 339 337 336 334 329 311 311 305 305 302 302 300 299 297 296 294 293 293 291 299 301 294 294 295 296 296 296 296 296 296 294 295 294 293 295 295 296 295 294 296 296 299 302 299 299 299 300 300 298 298 298 298
318 318 317 318 318 319 320 321 321 322 322 323 323 323 323 324 324 323 323 323 324 324 323 324 324 324 323 323 312 304 300 300 305 311 331 338 338 335 335 332 322 309 307 307 303 303 300 297 297 294 293 295 292 292 294 296 299 298 295 293 296 297 297 297 298 295 293 293 294 295 294 294 294 294 294 294 299 300 301 301 299 299 300 300 298 297 298 298
318 318 318 317 318 319 320 321 321 321 322 323 323 323 324 324 324 323 323 324 323 323 323 323 323 323 322 311 311 300 300 300 305 312 323 335 329 326 320 311 310 308 306 304 301 301 299 297 296 295 294 293 292 294 295 296 295 296 295 293 296 295 295 295 293 292 293 294 294 294 294 296 295 295 295 298 300 301 302 300 299 298 298 298 297 297 296 296
321 320 319 319 318 320 319 321 321 321 322 323 323 323 324 324 323 323 323 323 323 323 323 323 322 322 322 311 301 298 297 305 311 316 323 320 319 313 309 309 309 307 305 302 301 301 301 296 297 296 293 293 294 296 293 294 290 292 294 293 293 294 293 295 294 294 295 296 295 293 294 296 294 294 295 298 300 301 300 297 297 296 295 294 296 296 296 297
321 321 320 319 320 319 320 321 321 322 323 323 323 324 324 324 323 323 323 323 323 323 323 323 323 322 311 303 298 295 302 311 322 326 322 318 317 314 311 308 308 305 305 304 300 302 300 298 300 299 297 297 297 295 294 294 290 294 292 292 292 293 292 293 293 296 295 294 294 294 295 295 294 295 291 293 298 299 297 297 297 295 294 294 295 297 298 299
320 320 320 319 320 319 320 321 322 323 323 323 324 324 324 323 323 323 323 323 323 323 323 323 323 319 307 307 298 295 307 317 317 323 320 315 313 310 311 310 307 307 304 303 303 302 301 300 301 301 302 296 295 293 294 294 296 296 294 292 293 292 293 293 293 294 294 295 292 293 292 293 291 294 293 298 300 298 295 297 297 295 294 295 298 298 299 299
321 321 319 319 319 319 321 322 323 323 323 323 323 323 323 323 323 323 323 322 322 323 323 321 321 314 311 303 298 302 310 313 318 319 318 313 311 310 311 310 306 307 305 303 305 306 305 304 302 301 295 300 292 295 293 293 296 294 293 292 290 291 293 295 294 295 294 293 292 292 292 290 291 290 296 298 298 296 295 296 294 293 294 297 298 298 298 298
321 319 319 319 319 320 321 323 323 323 323 323 323 323 324 324 323 323 323 322 322 323 322 322 319 313 308 299 303 308 308 310 314 314 314 310 309 310 310 308 308 307 306 304 304 306 305 303 302 299 298 296 293 294 295 296 295 294 293 291 290 289 288 295 294 293 293 293 291 293 285 285 291 294 297 298 296 294 294 294 293 294 295 297 297 297 297 298
321 319 318 319 319 320 321 322 323 323 323 323 323 324 324 323 323 323 323 322 322 322 323 322 312 311 305 299 306 309 309 313 314 314 312 312 310 309 310 309 308 307 307 305 306 303 305 302 302 302 301 298 296 299 296 291 291 290 290 291 286 285 284 291 294 292 292 293 291 294 286 285 290 294 296 296 295 294 293 293 293 294 296 297 296 296 296 296
321 319 320 319 320 320 320 322 323 323 323 323 324 324 323 322 323 323 323 321 320 321 321 321 310 304 298 301 308 309 325 312 313 311 312 310 308 307 308 308 306 303 304 305 306 305 303 304 302 300 297 297 298 294 289 287 286 287 288 283 282 285 285 289 294 293 292 292 291 292 285 287 291 293 295 296 295 294 293 293 293 296 296 296 295 295 295 295
321 320 319 318 319 321 321 322 322 323 323 323 323 322 322 323 323 323 323 321 322 322 313 311 310 302 298 297 306 318 308 306 307 309 308 312 307 308 307 305 307 304 303 303 303 302 301 301 299 294 296 296 294 285 284 285 285 284 287 282 283 283 284 289 293 292 292 292 292 292 287 285 290 291 293 294 293 293 292 292 294 295 295 295 294 294 293 293
321 320 319 319 320 321 321 322 321 322 323 322 322 322 322 323 324 320 322 321 318 317 313 308 308 306 296 305 309 305 303 304 309 309 308 308 310 307 304 304 303 303 302 302 302 302 299 300 297 296 296 291 288 288 284 281 283 283 284 284 284 285 285 284 290 293 291 291 289 290 288 287 291 291 294 295 295 293 293 292 294 295 294 294 293 292 292 292
321 320 320 320 321 321 321 321 322 322 322 322 321 322 320 322 322 321 320 315 314 313 310 314 307 301 299 305 300 301 305 305 308 309 307 307 306 304 302 302 300 299 299 298 299 297 298 296 293 290 290 291 290 286 283 281 285 282 283 284 285 285 285 287 287 290 293 291 291 289 288 288 290 292 293 295 295 293 292 292 294 294 293 293 292 292 292 292
321 320 320 321 321 321 321 321 322 323 322 322 322 322 320 319 312 312 311 313 306 302 298 298 298 294 293 301 302 304 308 308 307 307 305 306 307 304 303 302 300 298 296 295 294 296 293 292 291 288 286 287 288 289 288 289 288 288 288 288 285 285 286 287 290 291 293 291 291 289 291 292 291 291 293 294 294 294 292 293 294 293 292 292 291 291 291 291
320 320 320 321 321 321 321 322 323 322 322 318 317 314 308 303 301 304 304 306 302 303 302 301 302 299 301 302 303 305 308 307 302 302 306 306 306 304 302 301 298 297 294 293 293 293 294 288 285 285 288 290 291 291 292 292 291 289 288 287 286 286 286 289 290 294 293 291 288 291 289 287 289 291 294 294 292 292 291 293 292 292 291 291 291 291 291 291
319 320 320 320 321 321 321 322 322 322 321 318 315 307 302 298 297 297 298 300 303 304 303 304 302 302 303 304 303 303 302 303 302 303 305 308 303 302 298 298 294 293 291 293 292 295 294 287 286 289 292 292 292 292 291 289 289 288 287 285 286 285 286 289 291 291 292 291 286 285 289 289 291 293 293 293 293 291 291 292 291 291 291 291 290 290 290 291
319 320 320 320 321 321 322 322 322 321 320 316 311 302 301 301 304 304 300 297 301 303 304 304 305 303 307 307 304 304 305 302 301 301 306 306 301 299 296 295 291 292 292 291 291 289 287 286 290 292 293 292 291 291 290 288 288 287 286 285 284 286 287 290 291 291 290 291 287 285 289 289 292 292 292 292 291 291 292 292 291 290 290 290 290 290 290 290
319 319 320 320 321 322 322 322 321 321 315 307 305 303 302 306 306 305 302 295 295 301 302 301 301 302 304 305 304 305 302 300 300 301 303 304 298 298 295 294 291 291 292 292 290 285 285 286 291 294 293 291 290 290 290 289 289 286 287 285 285 287 287 284 287 288 290 290 288 287 287 289 290 291 291 291 291 291 291 291 290 291 290 289 289 289 289 288
319 319 320 320 321 321 322 321 322 316 310 306 304 304 307 304 303 305 299 294 294 299 301 302 302 302 300 303 305 304 302 300 300 299 304 301 298 296 295 294 292 291 291 291 291 289 290 291 295 294 291 291 290 290 289 288 287 286 288 287 287 287 287 288 288 288 288 288 288 287 286 285 289 288 288 290 291 291 291 290 290 290 290 290 290 289 289 288
319 319 319 320 319 320 320 321 312 309 309 305 304 306 305 304 303 303 299 294 292 295 302 302 303 302 302 305 303 301 298 300 299 301 303 302 297 296 295 295 293 290 291 292 291 289 289 294 295 292 290 289 289 289 289 289 285 286 286 290 290 289 288 286 287 288 283 283 284 287 279 276 282 286 287 288 288 288 289 288 288 289 289 289 288 288 288 289
318 319 319 319 319 320 322 312 307 309 308 305 306 306 305 302 302 303 296 286 285 291 298 295 304 300 305 299 299 299 300 295 299 300 304 301 303 298 296 294 294 290 291 290 290 288 291 294 293 293 290 288 288 288 288 290 286 285 288 289 291 289 288 287 286 285 281 279 286 286 282 276 281 284 286 287 286 286 287 287 287 288 288 288 288 288 287 287
319 318 319 319 320 321 314 307 310 311 308 308 307 306 305 304 304 303 296 286 283 293 295 300 300 298 302 298 299 299 290 289 299 299 299 302 300 301 293 291 293 294 293 292 289 288 291 292 290 291 290 288 287 287 289 291 287 284 286 287 288 287 287 285 285 286 282 282 283 285 283 281 279 284 287 287 286 285 286 286 286 287 287 287 287 287 287 287
319 319 319 320 320 320 314 312 312 310 309 308 306 305 305 304 303 303 293 281 284 299 293 296 299 304 300 297 298 294 293 297 292 297 298 300 299 296 295 289 292 291 292 291 285 288 291 289 289 289 288 287 288 292 289 291 289 286 287 286 286 287 286 284 285 282 282 282 279 280 284 280 277 281 286 287 284 283 284 285 285 286 286 286 286 287 286 286
319 319 319 319 320 321 319 316 313 309 310 305 306 307 307 305 303 296 289 282 294 291 302 295 305 300 296 297 295 292 292 293 290 294 298 299 300 296 292 291 291 291 290 291 287 286 291 293 290 291 290 288 290 287 289 292 288 289 287 286 285 285 284 283 280 283 279 279 277 281 283 278 278 280 283 284 284 283 284 285 285 286 286 286 286 286 286 286
319 319 319 319 319 318 317 316 314 311 308 309 309 309 308 305 300 290 285 280 295 288 295 296 296 292 293 291 292 294 291 290 293 295 295 295 295 297 295 295 291 290 290 286 288 289 291 293 293 291 290 291 287 288 287 290 290 288 287 286 283 282 281 279 279 278 277 274 280 282 283 283 276 280 283 283 284 285 285 284 285 285 285 286 286 285 285 285
318 319 318 318 315 316 316 311 315 309 310 309 309 308 307 301 288 284 280 289 294 293 294 294 292 294 290 289 287 291 290 290 292 292 291 295 294 292 292 291 291 284 282 283 285 286 288 289 291 289 292 290 289 288 287 286 286 288 285 282 284 282 279 276 273 277 273 272 276 280 283 283 275 277 281 283 285 287 286 284 285 284 284 285 285 285 285 284
316 318 319 317 315 315 313 311 311 310 310 310 311 307 302 289 291 283 284 299 287 290 288 288 292 290 290 291 288 288 288 291 291 291 289 287 287 289 287 284 285 280 280 280 284 282 285 287 287 289 293 293 289 288 286 284 285 285 283 284 279 273 273 273 273 272 272 275 277 279 282 280 281 282 283 283 284 287 286 287 286 285 284 284 284 284 284 284
314 315 317 315 313 314 311 310 310 310 310 310 308 304 293 287 281 288 287 290 287 293 291 294 291 292 293 291 289 290 291 288 290 291 290 289 287 289 288 288 286 287 281 280 283 281 284 282 286 288 290 291 290 287 282 285 284 284 285 280 276 272 271 266 268 267 269 274 277 280 282 280 280 281 283 282 284 286 286 286 286 285 285 284 284 284 283 283
313 314 312 309 310 312 311 310 310 311 310 309 305 298 291 284 283 295 291 290 292 295 295 293 294 292 291 287 288 290 288 290 289 289 291 287 287 284 288 290 290 290 289 281 282 280 276 278 284 287 286 289 291 291 289 284 282 285 283 286 282 275 269 268 267 272 273 275 276 277 276 272 276 279 281 283 283 285 286 286 285 284 284 284 283 283 282 282
312 311 311 311 311 311 311 311 310 311 310 307 300 293 285 284 286 285 286 289 292 294 293 295 293 291 291 290 290 292 292 288 290 289 287 286 284 282 284 287 291 291 287 284 284 281 283 282 283 288 289 290 290 290 287 284 283 283 281 283 278 280 279 276 272 269 268 272 273 274 276 276 278 282 283 283 283 284 284 284 284 283 283 283 282 282 282 282
309 307 310 307 308 311 312 311 311 311 310 303 295 288 286 288 284 286 288 296 296 292 292 293 291 290 287 286 289 292 295 291 291 290 287 286 285 285 285 286 290 293 289 286 286 284 284 281 285 290 289 288 289 290 291 288 281 282 284 281 284 285 285 278 275 274 273 273 275 271 279 280 282 283 282 282 283 282 282 282 282 282 282 281 282 282 282 282
303 306 304 306 307 311 312 312 311 309 307 301 293 286 292 290 290 289 296 295 295 294 292 289 289 289 287 285 285 287 291 293 289 288 286 286 287 288 287 289 292 292 294 294 286 288 283 281 284 286 287 289 285 289 289 288 288 285 280 284 285 287 284 280 273 270 271 271 273 274 275 276 278 273 280 280 279 281 281 282 282 282 281 282 282 282 282 282
302 302 304 303 308 311 312 312 310 308 304 298 291 291 292 290 294 294 294 295 296 295 290 289 289 292 286 286 286 286 290 289 287 288 282 284 285 288 286 288 291 291 293 294 289 287 288 281 283 286 286 287 286 288 288 288 288 285 283 286 286 278 278 279 274 271 269 268 269 272 275 276 278 278 278 279 280 281 281 281 281 282 282 282 282 283 282 282
303 303 299 304 308 310 311 312 310 305 300 293 291 290 295 293 295 293 296 296 296 294 291 291 289 291 290 285 285 286 288 285 286 284 284 284 284 289 289 290 289 290 291 292 289 285 287 281 280 285 287 287 285 284 280 283 287 287 287 286 283 281 275 274 278 273 274 268 271 266 272 275 279 280 280 282 282 282 282 281 282 282 283 283 283 283 283 283
301 299 297 304 306 310 311 311 305 302 297 290 291 291 295 291 294 296 296 298 294 294 291 290 292 289 291 289 287 287 285 287 285 285 286 287 287 290 289 293 289 291 289 292 290 290 286 285 276 283 283 286 283 284 282 283 281 284 284 281 283 281 281 280 279 276 276 268 268 269 270 273 275 281 282 283 284 283 283 282 283 283 284 284 284 283 283 283
300 298 297 303 306 309 311 306 299 295 294 292 293 291 290 292 293 294 297 299 297 299 295 292 292 291 291 289 290 289 288 288 287 287 287 286 286 284 288 291 291 290 290 289 289 286 283 284 282 281 282 282 281 283 284 284 286 283 285 283 284 281 278 276 276 280 273 276 269 271 273 274 279 285 284 283 284 284 284 284 284 284 284 284 283 283 283 283
298 292 296 305 306 308 305 295 293 296 292 292 292 293 291 298 291 291 295 296 297 295 298 295 293 292 290 291 290 288 288 287 288 287 287 288 288 288 288 290 289 289 289 284 285 286 286 281 281 281 282 283 283 288 284 286 284 284 285 283 284 281 280 274 275 273 273 275 272 271 272 275 282 281 282 283 284 285 285 285 284 285 284 284 284 284 284 284
294 293 301 303 305 304 300 293 294 292 291 293 295 293 293 292 290 291 293 295 294 297 294 294 293 292 292 292 290 289 291 287 290 289 287 287 290 291 289 290 291 289 288 285 289 287 291 281 280 282 281 282 283 284 284 284 287 286 284 282 283 280 281 280 277 273 273 272 274 273 275 280 284 282 280 281 282 284 285 285 285 285 285 285 285 284 283 283
293 294 296 303 306 303 296 287 287 289 292 294 293 293 295 293 291 290 292 294 295 293 294 293 292 296 292 293 292 290 292 286 289 290 288 288 286 290 286 290 291 288 290 288 289 289 283 283 283 278 279 279 281 283 284 285 283 279 282 282 280 281 281 280 279 279 278 279 279 276 273 280 285 283 283 283 284 285 285 285 285 285 285 285 285 284 284 284
290 293 296 299 302 300 291 294 292 290 290 291 291 289 291 292 293 294 294 293 296 294 293 292 294 293 291 293 291 292 291 291 287 288 289 286 287 288 286 286 288 287 290 290 293 288 287 283 281 277 275 274 273 274 273 278 283 282 280 280 284 283 282 281 277 277 276 281 282 277 278 284 285 284 284 283 282 284 284 284 284 284 285 284 284 284 283 283
288 284 291 292 297 295 294 296 293 292 290 289 289 291 292 289 291 292 295 294 297 295 295 293 292 292 292 290 288 288 288 288 288 282 285 284 284 281 283 284 287 287 289 293 291 288 282 283 283 283 281 279 279 275 280 282 281 277 279 282 282 282 282 282 280 278 277 279 276 277 279 278 281 283 283 282 281 283 284 284 284 283 284 285 284 284 283 283
289 283 287 283 293 292 291 294 291 292 289 292 286 290 288 289 291 290 295 289 293 294 292 293 292 290 287 288 287 287 287 287 287 286 286 283 283 282 282 284 284 286 291 290 288 283 280 281 282 282 282 283 282 281 283 284 281 280 279 279 281 280 279 280 280 277 283 278 275 283 283 278 280 283 283 283 283 283 283 283 283 282 282 282 282 281 283 280
283 286 289 292 288 284 286 287 292 290 292 292 288 290 288 288 288 286 289 292 291 293 289 286 289 291 290 289 288 284 285 286 286 285 286 282 282 285 284 286 285 287 287 285 285 286 279 279 278 281 278 280 281 282 282 283 283 282 282 281 281 281 277 276 274 281 281 278 277 282 282 279 281 282 280 281 282 282 282 282 283 284 283 280 279 280 280 279
286 283 283 286 282 283 289 291 292 290 289 290 288 290 287 287 285 286 285 286 288 286 291 284 286 289 289 288 288 285 285 282 282 284 284 281 282 280 278 281 285 285 285 282 284 282 281 275 275 278 275 279 279 279 281 280 279 279 278 279 279 279 277 277 276 280 280 278 280 279 278 278 280 282 280 280 281 281 280 279 279 280 280 280 280 280 279 279
281 281 280 282 281 281 281 289 290 289 286 290 285 287 287 286 285 285 285 286 282 285 287 286 286 284 287 287 288 286 287 287 285 284 283 285 278 281 279 282 279 281 280 281 283 283 285 279 282 277 276 272 276 280 279 276 275 274 276 277 277 277 277 278 278 278 277 277 278 278 277 277 282 279 280 278 278 277 277 277 279 279 280 279 279 279 278 277
284 284 284 280 279 279 282 284 288 287 285 286 285 286 287 287 285 287 285 287 286 283 284 287 289 285 281 285 286 287 289 287 284 284 281 283 284 283 284 280 283 277 280 278 279 279 281 277 280 278 275 274 276 277 278 276 275 273 273 275 276 275 273 276 274 277 276 274 277 275 272 275 280 275 276 275 275 277 277 276 275 276 277 278 277 276 276 276
285 284 285 281 276 283 280 280 285 286 282 286 286 285 286 286 287 286 284 286 285 286 286 287 286 286 284 284 284 287 289 286 285 284 283 285 285 284 284 283 285 283 279 280 279 279 279 276 275 274 274 273 276 275 274 272 273 273 275 278 278 276 277 277 277 277 277 278 272 270 273 278 279 279 277 275 274 275 275 275 275 274 275 276 276 276 276 276
Wind_Speed
9 9 9 9 9 9 9 10 10 10 10 10 10 11 11 11 11 12 12 12 13 13 14 14 14 15 15 15 15 14 14 2 3 1 4 7 3 4 10 3 12 10 8 3 3 4 1 2 1 3 3 3 2 1 1 1 1 2 1 3 1 4 1 5 4 4 0 1 4 5 1 1 4 3 3 3 2 1 4 6 6 3 5 4 4 3 3 3
8 8 9 8 8 9 8 9 9 9 9 10 10 10 11 11 11 11 11 12 13 14 14 14 15 15 15 14 14 14 9 1 5 5 10 4 8 5 6 5 10 12 7 3 5 3 5 0 1 2 2 1 1 0 1 1 1 2 1 2 6 5 6 5 3 2 0 3 4 4 2 3 4 0 2 2 3 3 6 7 5 9 7 7 8 6 1 4
7 8 8 8 8 8 8 8 9 9 9 9 10 10 10 11 11 11 12 13 13 14 14 15 15 15 15 15 15 14 6 4 4 4 2 6 2 4 4 7 10 12 5 3 4 7 5 4 4 3 2 1 2 1 2 1 1 2 4 3 6 7 5 5 4 7 4 3 5 5 2 0 4 0 0 2 6 1 7 11 9 7 12 6 4 4 1 3
7 7 7 7 7 8 8 8 8 9 9 9 9 10 10 11 11 12 12 13 13 14 15 15 15 15 15 15 14 10 1 2 2 2 1 5 4 3 2 7 9 7 3 5 4 3 2 5 4 4 1 1 3 1 1 3 1 2 2 4 5 4 2 6 5 6 5 3 3 3 2 6 5 3 1 4 9 10 6 7 9 12 13 11 5 4 1 2
6 6 6 6 6 7 8 8 8 8 9 9 10 10 10 10 11 12 13 13 13 14 14 15 15 15 14 14 14 3 2 3 1 1 2 3 3 4 3 5 6 3 3 2 3 2 3 2 4 1 2 2 1 1 3 2 2 3 7 5 6 1 1 9 7 7 3 3 4 5 6 8 1 1 1 0 5 12 7 8 6 10 11 9 10 5 3 4
5 6 6 6 6 7 8 8 8 8 9 10 10 11 11 11 11 13 13 13 14 14 14 13 13 13 13 13 6 1 1 2 1 0 2 2 3 4 4 7 6 2 0 4 1 1 3 1 3 1 0 0 3 4 3 2 2 4 3 4 5 6 5 2 2 2 4 4 5 5 3 3 1 4 3 5 10 11 11 7 7 8 10 10 4 5 5 4
4 5 5 6 7 7 8 8 9 9 10 10 11 11 11 12 12 12 13 14 14 14 13 13 12 12 13 9 1 2 1 5 2 4 3 3 3 5 7 7 7 4 2 1 0 1 1 2 2 2 2 0 3 3 5 0 2 4 7 1 5 6 9 7 5 6 5 3 5 3 4 6 4 9 1 4 11 13 14 10 6 8 10 8 6 5 7 7
2 3 4 6 6 8 8 8 9 9 9 10 10 11 12 12 13 13 13 14 14 13 12 11 10 10 8 2 1 2 2 5 6 2 2 5 6 6 8 4 4 4 4 4 4 1 2 3 4 2 1 5 2 4 1 1 1 5 5 4 5 0 5 5 5 5 7 9 6 3 5 12 3 5 3 14 15 15 15 5 5 5 6 8 6 6 6 6
1 1 2 2 6 7 8 8 8 8 9 10 11 12 12 12 12 13 13 14 14 12 10 9 8 6 2 1 3 1 5 4 3 1 3 5 4 5 3 1 1 4 2 2 1 3 4 4 1 4 4 1 2 1 2 1 7 4 5 0 3 4 5 7 7 7 8 6 1 3 10 12 5 4 6 17 16 17 7 5 5 3 4 5 6 9 8 11
2 4 1 1 4 6 7 8 8 9 10 11 11 12 13 13 13 13 14 14 12 10 9 7 7 5 2 2 2 0 5 3 1 3 4 6 5 5 7 1 4 3 2 0 4 2 3 3 4 3 3 1 2 2 0 2 4 2 3 3 4 6 4 3 3 9 6 4 3 4 13 14 2 3 7 4 12 6 5 7 7 5 6 6 9 11 9 12
2 4 5 5 5 7 7 8 9 10 11 12 12 13 13 14 14 14 14 13 11 9 7 6 1 2 0 1 3 6 4 3 0 3 5 5 6 5 1 2 3 3 2 1 1 3 3 2 3 3 1 3 2 2 1 2 0 0 1 5 6 6 5 7 6 13 3 6 3 7 8 7 2 1 9 11 11 2 5 7 8 7 5 10 10 10 7 11
1 3 5 6 6 6 7 9 10 10 12 12 13 13 14 14 15 14 13 12 9 7 7 2 3 1 0 1 5 7 2 2 1 3 4 4 3 5 4 4 4 3 4 2 0 2 3 3 5 2 3 0 1 1 2 1 1 2 3 6 7 7 7 9 8 7 2 5 2 6 1 6 1 5 13 13 7 4 6 9 5 5 8 9 9 11 11 9
2 2 5 6 6 8 9 10 10 11 12 13 13 14 14 14 15 14 12 8 6 7 5 2 3 1 0 3 8 5 3 3 3 6 2 2 3 1 1 1 4 3 3 3 2 1 1 4 3 2 2 3 1 1 1 1 1 2 2 0 7 5 7 14 1 2 2 4 5 6 3 6 8 12 12 10 5 5 6 6 5 6 9 8 8 9 9 10
3 2 6 6 6 9 9 10 11 11 13 14 14 14 15 15 14 12 9 5 5 2 3 4 2 1 0 5 4 2 3 1 3 3 1 0 3 1 1 3 3 2 1 3 1 1 0 1 3 1 1 1 2 2 3 3 2 3 2 1 4 4 6 7 0 1 5 2 7 4 3 7 9 12 10 7 1 2 6 4 6 8 8 7 7 8 10 11
4 4 4 6 7 9 8 9 10 12 13 14 14 14 16 15 13 10 7 3 1 2 2 3 2 1 1 6 2 4 3 1 2 2 1 3 2 1 0 1 3 3 1 4 1 0 2 2 3 1 1 1 1 2 4 3 3 1 2 5 3 4 7 11 8 3 3 1 3 5 3 8 8 10 12 9 1 0 5 6 7 8 7 7 7 8 8 8
6 5 2 7 9 10 8 8 9 12 13 14 14 15 13 13 10 6 3 2 3 3 2 1 1 1 2 7 1 2 1 1 2 1 0 2 3 0 1 3 0 3 2 2 2 1 3 3 1 3 0 1 0 3 3 5 3 3 4 4 3 2 5 7 5 2 5 2 1 6 6 2 5 8 9 8 4 2 4 5 7 8 8 7 7 7 6 7
5 6 4 6 8 10 7 8 10 12 13 13 16 16 12 9 4 3 4 2 2 2 1 1 0 0 1 1 1 0 2 3 1 1 1 1 2 4 4 3 1 1 3 3 4 3 3 1 1 2 2 2 3 5 1 3 6 5 0 6 4 4 1 3 8 4 1 3 2 2 2 5 6 8 11 13 8 7 7 5 7 7 7 7 7 8 8 9
6 6 6 6 9 8 8 9 11 11 12 12 14 14 9 4 5 4 2 3 0 1 1 1 1 2 8 1 2 2 0 1 0 2 1 1 3 4 3 1 1 4 2 1 3 2 1 0 2 5 1 1 2 4 5 8 8 5 2 3 6 3 5 8 1 3 4 1 1 2 4 8 11 10 11 12 9 6 5 6 7 7 7 6 7 8 9 9
6 5 4 8 9 7 8 10 12 11 12 15 12 6 5 6 2 2 3 1 1 1 1 1 3 4 3 1 2 3 0 2 0 2 2 2 1 3 3 3 4 3 0 1 2 2 2 3 4 2 4 3 7 9 12 12 6 8 7 6 3 4 4 4 7 5 1 5 5 5 8 9 6 8 10 4 2 2 3 8 8 7 7 7 8 8 8 9
5 4 7 9 7 8 11 11 12 12 13 10 6 2 1 1 2 0 2 1 3 5 1 2 6 3 6 6 2 1 0 2 3 2 1 1 4 2 1 2 3 5 4 4 1 2 2 4 6 7 9 11 11 13 14 13 6 2 0 1 6 5 6 6 5 9 0 3 5 7 4 2 7 9 9 3 2 4 4 7 7 7 7 7 8 9 9 10
4 6 9 8 8 9 11 11 12 11 11 5 4 1 2 2 0 3 3 7 4 4 6 5 10 8 8 3 1 3 2 2 1 0 1 1 3 6 2 2 1 1 3 3 4 1 2 6 6 10 12 13 14 13 9 4 1 4 4 3 7 3 9 6 5 3 2 2 3 0 2 6 7 8 8 7 8 8 4 9 8 9 7 7 8 9 9 6
4 7 9 8 9 10 11 11 11 11 9 2 0 2 0 1 0 0 2 4 3 7 8 12 3 5 6 8 4 4 3 2 3 3 1 2 3 6 2 4 4 8 1 3 2 1 3 8 10 15 14 6 3 1 3 5 6 3 5 5 4 8 5 7 7 2 1 1 7 1 2 7 10 4 9 10 9 6 7 7 7 8 7 7 7 8 7 7
7 10 10 8 9 9 12 12 9 10 3 1 1 3 1 0 0 0 2 1 6 3 3 7 6 10 10 1 3 4 8 9 9 3 5 4 2 5 5 4 5 3 2 5 8 3 4 5 14 15 4 4 5 3 2 2 2 4 2 1 7 4 2 6 4 1 2 1 4 3 5 7 5 8 10 7 7 7 9 11 9 5 6 7 6 5 7 7
10 10 8 7 7 10 11 11 10 5 1 2 3 2 0 1 2 2 1 2 3 7 7 4 2 1 5 1 2 6 8 3 2 4 2 5 7 3 3 7 6 4 7 9 10 11 12 8 10 8 4 6 8 7 4 5 7 3 6 6 6 6 6 8 6 3 3 2 1 2 4 6 8 3 4 5 6 9 7 9 9 7 6 5 6 8 6 7
8 9 8 6 7 10 10 7 3 2 1 2 0 1 0 1 2 3 1 3 1 5 1 0 1 0 1 1 1 3 1 0 4 0 3 5 5 3 4 2 3 8 7 9 7 7 8 9 0 2 4 4 4 7 8 6 4 3 6 11 10 7 6 4 2 3 6 3 1 1 3 4 2 1 6 4 5 7 4 7 6 4 4 4 8 7 5 6
12 10 8 7 9 10 7 2 2 1 2 2 2 2 1 2 2 1 2 2 5 4 2 4 1 1 1 0 2 2 3 3 0 1 1 2 1 2 1 1 3 7 8 4 7 4 8 6 4 6 5 5 6 6 5 7 6 1 7 7 10 7 4 2 1 3 1 2 1 2 0 7 6 2 5 4 5 6 3 4 3 3 3 4 5 5 5 5
10 10 9 10 10 9 1 3 0 1 0 2 2 1 1 2 1 1 1 2 3 3 4 0 1 1 0 1 1 2 2 3 1 2 1 2 1 1 2 5 1 1 2 1 2 6 3 8 6 3 4 5 4 5 5 9 6 4 2 4 4 4 3 3 3 4 4 1 5 1 1 6 5 5 4 5 8 5 4 3 3 3 3 4 4 4 4 4
11 11 12 11 12 10 1 0 0 1 1 0 3 3 2 3 3 1 2 2 3 1 1 1 0 1 1 0 4 1 1 0 1 1 0 1 1 2 1 3 4 4 1 2 7 4 4 1 2 5 5 5 7 9 2 8 6 4 1 5 3 4 3 3 2 1 1 1 8 1 0 1 5 5 2 7 9 2 3 4 3 3 2 4 4 4 4 4
12 12 12 11 12 13 3 1 1 2 1 3 3 3 3 3 1 1 1 2 1 2 2 1 2 1 1 1 2 1 0 0 0 1 2 1 2 2 2 4 3 1 2 3 7 3 2 1 4 7 7 7 6 1 7 10 5 3 3 5 6 6 5 2 2 2 2 1 7 5 5 5 7 3 5 3 1 7 7 6 5 3 3 3 4 4 4 4
11 11 11 11 6 5 3 1 3 1 4 3 3 3 3 2 2 2 1 6 1 1 1 0 2 2 1 3 0 0 1 1 1 0 1 2 2 2 0 1 2 0 3 3 2 7 3 3 5 3 6 5 4 0 2 3 2 4 5 2 3 7 3 3 6 2 2 4 8 9 9 9 6 4 8 10 6 5 8 3 3 3 2 3 3 3 3 3
12 11 11 10 5 3 3 3 4 5 4 4 4 3 2 2 3 3 7 2 2 1 2 0 2 2 4 4 2 1 1 1 0 1 1 1 1 2 1 0 3 3 2 3 5 5 2 2 0 2 2 3 3 3 4 2 2 4 2 3 3 4 7 3 4 4 1 8 6 7 9 8 8 5 3 3 5 9 16 15 13 9 6 5 4 3 3 3
10 10 10 9 1 2 6 4 3 5 5 4 2 2 2 0 1 6 4 2 0 1 2 1 0 2 3 1 3 4 4 0 1 2 5 3 5 5 4 6 4 2 4 3 6 3 3 6 3 6 2 7 1 2 1 4 3 5 5 5 3 4 5 2 2 2 7 9 2 2 7 2 11 5 1 4 6 5 6 12 15 12 9 6 4 4 3 3
9 8 9 4 2 2 2 1 3 6 5 2 2 1 2 2 7 4 3 0 2 1 3 3 2 2 1 2 2 2 1 2 2 2 4 0 3 5 2 3 3 3 1 2 3 3 6 2 2 4 4 3 6 6 1 0 1 6 6 5 5 1 2 4 5 2 5 6 5 2 2 3 2 2 1 3 4 0 7 7 7 9 10 8 5 4 3 3
11 10 6 1 2 0 3 4 4 5 5 2 3 2 3 4 4 4 9 5 2 1 2 1 1 1 1 3 2 4 0 2 5 3 3 1 2 1 3 4 3 1 1 1 2 4 1 4 5 5 4 2 6 9 10 6 7 9 3 10 9 8 5 5 5 6 7 7 1 3 2 6 4 2 3 2 2 2 6 7 5 5 5 5 4 4 4 4
8 5 5 2 2 0 3 3 6 2 3 4 2 3 5 8 2 5 4 3 1 1 1 0 1 1 1 0 2 1 3 0 2 2 3 4 4 3 3 3 4 4 1 2 3 2 7 6 5 4 1 3 9 3 6 5 3 1 3 5 5 7 5 6 6 3 2 2 3 2 5 1 2 0 1 2 3 4 5 6 6 6 4 5 4 4 4 4
5 0 2 2 2 3 3 4 3 1 4 5 3 5 11 4 3 2 2 3 0 2 2 2 3 1 1 2 2 1 4 1 1 2 1 3 4 5 3 3 5 10 5 5 3 3 0 4 1 4 3 5 5 2 3 4 5 2 5 6 8 3 5 0 2 0 2 2 9 2 1 1 0 1 1 1 5 3 4 4 5 5 5 4 5 4 4 4
3 1 2 1 0 3 4 4 3 2 3 5 5 9 6 2 4 2 3 2 2 5 2 4 3 6 3 3 2 1 2 2 3 2 5 1 4 6 3 4 3 4 9 9 5 4 5 6 2 3 5 4 0 0 1 3 3 6 2 8 1 2 3 3 5 2 1 6 6 2 6 2 2 6 3 1 4 5 4 6 6 5 4 6 5 5 5 5
2 1 1 1 2 4 3 4 2 2 4 5 10 12 1 4 2 3 0 1 1 1 2 4 3 6 3 3 2 3 1 6 2 3 3 2 3 2 5 2 1 5 5 2 4 3 2 6 4 4 3 4 2 1 2 1 1 4 3 2 3 4 2 2 5 4 2 4 4 4 2 3 8 6 4 8 10 12 9 6 6 6 6 7 5 5 5 4
2 3 1 2 1 5 3 4 1 4 5 7 9 12 3 5 1 1 5 3 1 2 1 3 3 1 4 2 3 1 2 2 1 3 1 3 3 2 3 4 1 2 2 6 3 1 1 4 5 1 2 1 1 3 5 4 2 0 0 0 0 1 2 3 6 4 3 5 1 6 3 7 5 6 16 17 16 14 11 8 10 9 10 9 7 7 7 6
2 3 3 1 2 3 4 4 4 4 6 13 10 8 1 1 3 4 2 2 2 3 4 2 2 2 1 5 4 4 2 2 2 4 3 3 3 2 1 2 3 0 3 0 2 1 3 2 5 1 2 1 2 3 7 8 5 0 0 2 1 0 3 2 1 4 4 3 4 3 7 5 3 3 9 14 15 16 16 13 10 10 9 8 8 7 7 6
3 1 1 1 0 3 5 2 4 9 8 2 1 1 1 3 0 2 4 3 1 1 3 2 5 7 4 2 6 3 1 3 2 4 3 4 4 6 1 3 2 4 0 3 1 0 0 1 6 1 1 6 6 3 5 4 7 7 9 8 9 4 4 6 10 2 1 4 4 3 11 4 4 0 3 5 6 10 9 12 12 9 10 8 6 6 7 7
5 3 2 1 1 3 7 6 3 1 2 6 6 4 2 3 0 1 0 1 4 3 2 0 3 4 3 5 3 3 3 3 4 3 3 8 2 6 1 4 2 1 4 4 5 2 4 2 2 8 7 8 6 0 1 1 2 2 5 4 4 2 4 3 8 6 1 3 2 2 2 8 2 3 2 5 10 13 13 10 10 9 8 8 8 7 6 7
3 2 3 2 1 2 6 5 2 3 4 2 2 2 1 1 3 3 3 2 1 4 2 4 5 4 5 4 3 4 5 5 6 8 3 4 7 4 2 2 2 4 3 1 2 3 5 2 3 6 4 3 3 3 3 3 1 0 1 2 2 3 5 6 4 4 3 2 1 1 5 3 1 3 1 5 5 7 8 9 10 7 6 7 8 8 8 6
1 3 2 1 1 1 6 8 7 8 6 2 1 3 2 3 3 2 4 4 5 2 4 3 1 8 4 5 4 5 6 6 6 11 6 5 5 1 3 1 1 3 4 5 6 4 2 2 4 4 4 3 2 1 2 2 3 2 2 1 2 2 2 1 2 0 1 5 5 4 12 5 1 3 2 5 7 8 8 4 4 6 4 6 7 7 6 7
3 2 2 1 1 3 9 4 7 7 10 10 6 7 5 2 5 8 5 5 4 4 1 3 8 2 4 4 5 6 5 13 5 4 6 3 3 1 5 4 4 3 0 3 1 0 4 4 6 6 10 11 11 8 5 5 8 1 0 0 1 4 4 3 4 2 6 4 9 3 7 2 1 1 1 1 4 5 2 2 3 4 8 8 7 7 8 7
2 2 1 1 4 4 4 1 1 4 7 9 9 10 8 8 3 3 9 6 7 3 5 1 1 3 6 3 5 6 8 4 10 2 4 3 2 2 3 6 1 2 2 3 2 2 2 1 3 6 11 14 9 2 2 2 2 2 2 3 3 2 3 4 3 2 8 2 3 4 5 1 3 3 3 4 1 5 5 5 6 4 5 6 7 7 8 7
1 3 5 5 2 7 7 5 3 4 5 7 6 4 12 13 6 2 10 4 7 8 2 7 5 4 3 7 8 8 6 7 6 7 7 4 2 3 4 1 5 3 3 1 2 4 1 2 5 6 6 5 2 4 3 3 3 3 2 4 5 5 4 6 7 6 3 1 11 7 6 4 9 9 8 8 8 6 5 5 5 4 5 9 8 6 6 5
3 4 3 3 5 7 10 10 11 7 4 4 5 1 5 6 7 7 1 3 2 6 7 2 6 13 12 9 5 8 6 10 7 10 4 1 2 1 1 1 1 2 5 1 0 4 4 6 3 3 4 1 2 3 1 2 2 2 4 5 8 6 5 8 5 5 6 8 13 8 3 6 8 8 4 9 9 10 9 9 9 10 6 5 5 7 7 7
2 1 2 2 2 3 9 4 10 11 11 7 4 5 10 10 7 5 3 1 4 4 12 9 9 12 11 6 8 8 5 6 8 5 4 3 6 3 2 3 4 2 1 1 1 0 3 4 4 3 3 1 3 5 3 5 2 1 5 8 8 8 5 4 4 7 11 9 7 8 7 10 9 12 3 7 7 6 6 3 1 4 7 10 7 7 7 7
4 2 3 3 1 1 1 5 7 11 14 12 8 11 10 7 11 6 2 3 3 4 2 10 10 5 8 10 10 12 12 12 6 8 4 6 2 3 4 6 2 2 1 4 1 3 3 4 6 1 1 2 0 2 2 4 2 3 7 9 10 4 2 6 7 9 4 7 10 10 11 14 13 2 3 2 2 1 1 4 7 7 7 8 8 7 7 6
1 1 1 3 1 3 0 1 7 10 8 8 13 12 7 10 15 8 5 2 6 4 3 11 11 7 1 7 10 14 11 8 8 8 2 5 11 5 6 4 4 3 3 2 0 2 1 4 2 2 3 3 0 3 0 4 3 2 7 14 13 6 5 8 9 6 7 10 12 7 7 12 11 3 0 2 4 7 7 5 5 5 6 7 8 7 7 7
2 1 2 1 1 3 5 1 2 5 12 11 10 8 8 11 9 4 6 4 5 4 3 3 4 5 3 3 12 14 9 5 5 7 8 2 2 2 1 1 5 7 4 4 1 2 2 4 3 1 2 3 3 3 2 3 5 10 16 18 9 9 11 7 6 7 11 9 6 8 12 9 10 4 2 2 4 4 4 5 4 4 6 8 8 7 7 7
Wind_Direction
32 26 27 26 21 19 16 15 12 10 7 5 0 359 357 356 353 350 346 343 341 341 337 335 334 331 332 334 338 335 337 31 350 343 337 239 243 248 178 115 151 147 146 97 76 98 29 17 59 353 26 57 303 48 276 35 64 57 109 115 263 200 143 214 196 191 184 262 287 323 259 223 304 323 283 355 325 337 291 300 272 300 259 240 260 75 102 139
28 23 24 22 18 18 15 12 10 5 2 358 357 353 354 353 350 345 345 340 339 336 335 333 331 330 330 333 337 339 340 27 313 290 251 312 320 189 181 147 144 142 124 93 137 136 114 232 278 51 71 47 303 95 8 257 74 114 113 104 225 188 239 160 207 213 307 259 256 278 295 187 259 131 294 359 284 320 319 285 289 290 277 287 294 311 60 128
19 24 18 15 14 11 12 8 3 1 358 354 353 351 350 348 346 343 342 340 337 335 333 331 331 328 330 334 333 339 350 343 337 303 296 351 349 168 158 145 148 155 145 159 193 148 149 187 170 106 26 87 356 189 41 265 119 231 122 230 248 213 241 227 232 264 189 245 289 310 275 287 267 289 271 276 286 297 274 286 309 288 283 275 268 308 33 151
16 18 12 11 7 4 5 4 358 355 353 352 347 349 346 344 342 342 340 339 336 333 331 330 328 329 328 331 334 330 355 357 328 252 296 337 10 16 133 146 150 154 81 70 150 136 114 84 116 120 81 96 298 48 124 253 103 268 102 192 229 219 209 271 256 241 257 189 278 280 290 322 288 228 19 304 337 293 256 238 234 269 283 291 271 254 171 175
8 11 7 2 3 357 357 355 352 351 347 345 346 344 345 341 340 339 338 335 334 330 328 325 326 324 327 327 330 353 27 51 268 240 280 341 28 38 87 126 139 131 84 135 96 56 110 133 106 52 92 216 351 27 250 249 188 113 209 206 208 105 216 256 254 269 279 334 347 306 327 276 307 342 227 165 264 277 279 270 218 241 263 276 290 288 179 196
357 360 359 353 354 354 351 349 350 346 344 343 345 344 342 340 340 337 335 331 329 326 323 321 321 323 324 322 340 17 76 29 244 271 343 313 56 71 91 105 104 101 9 29 86 38 129 34 88 111 317 86 203 162 266 169 150 238 293 258 230 231 239 257 280 293 18 321 309 305 255 326 31 280 256 247 237 263 261 248 263 261 265 269 285 285 272 217
357 348 353 347 348 347 348 347 345 343 340 342 343 342 339 339 336 334 330 330 326 325 322 320 321 323 325 321 194 69 128 257 337 274 74 65 80 95 96 95 97 93 102 114 9 148 119 83 120 199 103 1 285 193 255 168 197 203 253 268 280 222 236 254 279 317 304 221 256 224 344 304 311 307 253 251 258 251 268 273 259 266 280 294 299 271 263 278
27 333 358 341 341 341 343 342 342 338 337 339 339 339 336 337 335 330 329 327 327 323 320 319 322 323 350 28 38 7 26 251 257 309 324 83 73 89 94 64 95 100 114 177 161 159 122 137 180 143 133 158 224 157 282 317 123 202 256 266 271 238 238 256 259 278 268 267 259 315 292 270 227 256 352 272 274 280 272 304 274 268 291 302 307 319 343 331
261 224 115 6 327 335 336 338 340 337 335 336 336 334 336 332 331 330 327 327 327 321 318 323 322 328 339 77 118 11 263 238 224 224 89 88 84 73 73 115 111 132 157 116 160 170 142 246 193 180 246 211 215 238 300 186 300 214 228 252 303 296 306 289 305 278 260 271 210 329 273 276 264 248 258 255 268 264 300 328 300 341 328 331 337 11 29 37
6 322 337 338 306 336 331 337 337 336 335 332 331 331 329 330 329 329 326 327 324 325 319 325 320 322 35 88 50 127 261 243 10 130 110 112 96 91 43 122 124 118 120 203 102 109 167 214 167 195 131 175 145 215 142 128 231 186 234 215 237 260 286 270 230 280 281 260 221 240 277 278 340 146 283 271 242 275 345 309 309 3 350 354 37 49 39 47
330 323 341 336 342 328 323 332 333 331 331 327 327 327 328 327 327 326 326 325 325 316 321 319 11 344 82 129 151 226 238 83 74 124 117 110 105 117 202 116 159 131 136 45 159 178 215 171 190 99 50 220 134 275 185 225 171 298 253 316 317 314 290 262 266 263 314 293 188 188 246 278 280 164 239 260 265 31 327 314 318 12 22 58 66 59 44 46
0 328 329 315 323 317 299 326 326 325 325 324 322 323 324 323 323 322 322 321 315 314 312 314 266 108 56 105 205 220 354 252 101 134 129 124 127 187 221 192 157 157 157 196 263 252 190 182 125 151 207 56 258 314 287 240 19 306 38 323 299 334 327 285 267 278 126 262 165 155 343 319 163 217 238 245 271 354 324 301 5 26 60 70 63 56 48 38
176 303 302 307 310 286 295 306 323 321 321 320 319 318 318 317 316 317 314 321 308 309 306 287 83 43 102 303 233 246 331 329 113 104 84 69 92 60 69 113 161 158 168 157 188 247 213 144 126 125 208 118 179 225 196 66 289 348 4 45 328 338 320 278 270 286 152 250 134 143 281 267 261 236 256 271 305 333 320 306 23 29 69 64 62 64 56 40
207 309 285 293 294 282 298 306 317 319 318 316 311 308 311 312 311 308 307 303 321 327 57 90 77 69 114 247 265 271 303 340 94 80 158 344 127 298 16 20 82 84 66 111 184 184 134 121 129 152 115 129 266 295 13 339 14 245 254 94 251 337 268 280 307 298 333 214 163 145 193 272 270 283 273 274 316 295 292 17 38 65 78 73 63 60 57 46
222 218 245 286 287 288 295 302 310 312 311 307 304 309 311 309 306 299 291 287 318 3 125 90 52 69 90 265 262 301 270 92 124 244 223 134 136 18 303 15 52 26 50 126 152 175 140 84 70 78 247 281 36 10 318 5 347 323 20 292 325 182 280 299 300 198 210 308 140 116 274 234 260 276 286 284 10 125 287 50 60 79 80 70 63 59 56 50
231 202 196 267 273 284 293 297 300 302 306 307 312 311 309 303 298 287 251 244 266 140 52 49 348 87 0 293 256 321 49 125 241 229 299 135 142 172 173 114 27 15 37 354 36 44 32 93 98 193 203 6 97 89 25 17 332 346 190 270 274 194 257 350 290 179 235 185 28 163 218 331 303 260 285 293 348 3 356 52 78 81 74 68 60 61 56 49
217 204 242 250 271 278 292 298 304 302 308 315 318 315 314 310 291 146 136 94 73 110 91 119 271 3 217 225 120 332 222 237 315 41 66 55 157 155 106 61 40 72 35 34 16 60 343 67 297 43 26 156 139 101 40 347 288 283 320 217 217 218 245 237 300 307 84 112 209 288 218 235 259 299 295 302 312 349 345 59 91 86 80 73 71 63 59 52
205 224 235 260 267 286 298 300 299 306 316 320 325 316 325 24 93 125 81 49 63 110 191 167 146 348 275 56 241 230 121 155 301 193 108 267 121 108 98 103 48 83 51 32 354 103 306 97 44 198 350 80 126 105 154 231 208 217 225 233 285 257 223 245 258 264 11 357 277 308 277 269 272 283 288 283 331 338 336 82 109 94 82 74 72 70 60 59
208 216 253 265 273 283 293 296 297 313 321 325 327 332 54 72 37 96 77 64 96 356 357 228 124 157 216 235 281 1 231 243 7 98 207 131 28 110 74 89 91 110 134 70 268 110 359 62 26 55 219 172 207 185 195 220 195 217 219 230 209 251 264 231 240 275 348 304 306 289 278 291 295 276 274 338 307 322 70 99 94 89 83 77 75 68 65 61
208 245 261 269 280 289 288 290 300 313 328 335 356 355 14 19 5 337 347 45 222 196 184 215 223 277 310 288 235 259 312 10 134 260 161 299 111 102 23 95 39 59 111 206 244 220 126 144 171 198 219 213 213 204 210 221 211 255 5 228 257 252 278 272 272 262 148 311 241 255 284 262 278 284 291 36 72 32 85 106 99 89 85 82 80 76 71 60
233 267 267 271 281 283 284 292 301 309 325 330 313 19 214 181 113 283 305 251 237 268 266 247 204 217 230 118 98 132 146 277 31 249 211 132 113 117 235 92 57 199 237 171 152 270 101 197 228 219 217 211 214 216 224 262 293 237 262 275 276 243 263 256 262 311 316 186 286 334 325 293 283 290 357 7 46 24 83 104 95 95 87 83 83 81 69 70
218 252 262 269 274 281 286 291 300 312 321 286 281 130 187 184 127 196 116 311 316 245 227 244 247 262 271 250 210 164 60 304 269 251 276 137 167 157 266 135 157 205 138 107 36 111 186 205 226 229 227 233 279 264 182 202 242 242 217 243 279 266 261 280 269 309 281 139 261 304 327 286 285 347 27 42 53 45 47 78 94 102 97 90 82 80 77 65
236 248 257 263 270 279 293 299 303 315 330 62 68 102 165 228 45 20 90 130 265 255 229 246 238 233 263 243 227 148 231 216 248 192 194 138 75 216 146 155 188 184 116 168 177 161 239 268 245 243 216 215 266 232 187 223 217 214 243 218 237 234 269 299 281 309 308 147 277 305 315 279 297 76 60 31 66 65 57 65 62 51 84 86 77 76 83 71
225 236 246 258 273 286 295 298 294 308 255 159 121 158 271 90 95 105 70 229 283 299 221 220 176 217 211 199 228 157 189 250 179 261 250 133 157 187 136 176 186 170 206 193 195 190 211 214 219 238 165 183 225 247 213 229 252 233 213 228 240 244 227 190 251 315 310 341 46 359 319 317 261 149 63 77 69 75 63 77 70 58 61 69 75 65 50 64
218 235 246 259 282 287 279 295 314 230 161 85 34 263 22 125 107 162 76 328 3 278 255 63 160 251 209 48 8 172 265 326 214 237 194 159 154 89 229 175 120 214 205 203 211 230 265 258 128 147 165 176 195 259 243 187 237 284 222 206 223 223 235 243 334 5 14 337 322 79 336 305 315 104 133 142 64 67 40 73 71 67 63 66 73 70 56 55
223 224 230 250 265 271 278 325 259 155 129 200 189 177 157 105 95 107 96 69 299 262 350 215 121 243 85 45 14 169 75 241 258 240 102 223 180 155 70 210 156 224 214 181 199 205 217 237 166 210 155 172 186 208 237 143 206 194 271 198 219 222 216 214 210 87 287 222 290 55 251 273 317 355 164 129 93 79 51 57 71 67 62 66 71 67 62 57
206 213 221 232 246 252 225 237 225 96 266 263 185 141 140 82 126 91 47 326 335 224 154 293 94 235 185 239 119 116 127 266 327 28 41 334 174 333 158 245 358 4 162 154 38 267 179 239 214 198 170 156 180 259 230 163 154 230 248 148 133 135 159 202 147 165 228 268 300 5 128 258 295 278 159 148 109 105 92 74 73 71 76 72 77 68 63 56
220 219 216 217 229 216 207 217 45 198 203 169 120 115 94 117 84 92 90 338 280 70 98 251 179 320 90 240 67 142 205 134 70 236 155 296 113 2 105 228 177 196 186 87 200 261 162 240 171 200 196 197 218 226 183 161 148 215 197 140 132 158 177 121 103 151 208 19 280 317 6 302 259 268 105 148 122 135 162 158 152 131 105 97 80 68 64 57
216 217 215 211 211 218 232 207 193 229 147 160 112 94 91 93 99 90 100 154 240 81 3 67 281 37 5 26 59 113 281 14 185 236 318 30 46 140 204 230 173 223 276 172 212 286 309 196 220 167 155 209 220 233 168 159 190 264 159 89 69 63 60 100 103 80 337 57 256 190 177 224 273 265 152 261 147 184 185 176 171 178 149 116 97 80 67 57
211 209 202 202 197 219 221 140 224 159 117 116 97 108 84 89 93 93 177 232 60 272 144 206 130 218 88 123 308 121 153 313 153 350 33 155 314 35 343 150 135 325 260 359 266 230 249 323 159 123 196 212 142 129 155 202 158 117 86 63 7 43 37 28 66 88 38 266 247 195 199 180 277 246 193 173 216 175 146 152 172 171 128 114 109 103 95 80
191 191 195 176 183 195 136 216 207 141 138 109 117 103 121 58 128 141 217 216 42 213 33 217 201 52 125 133 183 236 115 159 252 103 76 14 12 49 37 67 43 50 34 350 296 318 341 348 159 255 68 81 106 78 16 53 86 116 94 115 42 334 7 31 347 44 132 268 258 231 197 177 203 289 262 259 300 172 162 169 173 169 167 157 140 114 93 79
177 186 181 182 272 209 174 224 160 140 131 156 118 88 124 59 7 191 205 2 317 236 148 225 253 145 197 243 120 172 177 238 203 158 160 179 157 155 199 165 170 74 323 230 260 12 302 233 248 315 228 145 160 97 321 18 19 86 92 69 128 257 38 316 31 276 207 227 262 108 133 80 244 224 253 309 329 168 169 164 163 160 159 154 143 127 109 91
143 157 168 180 88 202 307 121 131 136 124 139 96 76 97 158 236 137 288 167 250 112 251 107 194 170 169 101 253 208 154 172 209 201 121 178 128 254 276 189 195 144 202 253 218 12 277 280 324 269 335 207 132 160 221 189 220 117 151 146 99 203 213 248 259 235 305 292 257 130 185 255 252 313 28 319 314 309 121 133 142 151 150 151 146 136 111 93
139 139 145 167 148 230 143 139 141 141 120 104 99 60 72 210 231 176 205 211 195 351 47 66 43 74 76 171 242 143 179 263 152 219 150 164 97 279 285 245 163 290 145 152 178 201 311 341 277 147 236 204 161 192 187 170 161 203 126 154 185 149 155 223 201 213 218 219 276 268 104 230 148 238 341 291 329 83 111 118 123 120 130 134 133 122 116 100
114 96 114 121 110 116 147 154 149 161 110 105 86 160 192 226 136 182 240 263 259 358 84 294 78 68 312 44 295 233 167 305 156 114 169 123 231 176 193 240 209 146 143 100 255 78 215 224 256 216 223 153 183 216 116 99 54 235 160 70 87 230 138 213 203 161 234 310 318 203 198 188 153 329 258 55 70 74 102 113 120 121 127 128 126 132 138 136
100 32 98 110 133 178 147 145 136 164 153 112 144 214 222 180 200 154 217 169 123 148 168 34 78 66 278 323 313 150 318 143 288 116 291 181 212 192 221 205 175 182 160 181 186 222 29 270 279 319 102 182 216 143 223 138 218 231 102 191 212 161 135 291 352 219 103 31 251 149 325 310 271 250 59 81 104 101 106 120 129 145 150 140 151 159 162 156
98 111 71 6 271 157 148 142 135 122 121 132 194 233 214 267 188 174 269 166 207 136 85 151 248 162 215 229 223 300 254 66 267 129 255 206 302 203 213 255 164 185 199 178 263 197 214 251 295 103 248 272 194 189 50 22 145 100 176 238 190 127 112 137 219 321 108 204 264 96 203 270 131 284 110 215 149 180 174 168 165 169 159 163 185 176 173 171
111 69 77 260 224 135 136 144 119 94 105 177 215 229 119 208 260 173 198 91 23 38 100 156 271 126 256 161 281 183 278 157 264 114 226 194 243 166 132 198 260 172 230 260 182 283 139 285 279 226 179 293 2 69 331 345 18 150 192 222 127 252 268 309 94 248 251 259 258 296 231 239 191 219 145 219 192 195 191 185 172 187 190 188 191 194 190 163
101 110 217 233 24 138 127 142 157 116 146 213 223 237 198 212 245 182 212 150 104 116 141 238 163 250 149 168 219 228 179 182 209 181 122 251 184 208 177 164 228 198 336 148 177 242 31 240 293 330 163 309 28 87 213 248 323 29 14 357 218 109 187 137 206 187 152 261 279 289 310 254 208 199 187 197 196 185 173 180 195 192 193 190 192 189 180 171
97 98 246 24 315 125 134 146 136 172 193 214 219 222 114 150 245 249 267 205 248 163 230 181 206 233 207 217 154 212 287 182 173 248 158 274 207 290 176 15 163 258 66 249 171 134 233 139 253 288 310 75 203 188 213 174 184 88 195 272 295 34 230 98 324 143 193 191 214 239 285 276 267 202 184 203 184 183 178 177 186 197 198 199 193 182 177 175
356 72 246 74 141 144 116 121 183 212 213 275 162 193 77 223 311 300 249 210 225 340 159 185 168 201 207 184 258 153 251 207 201 218 197 281 189 280 234 161 188 167 48 30 160 248 113 205 231 293 235 209 232 239 199 189 182 174 178 211 187 179 239 248 260 65 125 199 235 217 260 278 259 12 229 203 174 161 177 175 183 194 200 194 187 189 176 175
133 179 231 113 264 189 145 192 220 201 222 218 218 157 226 145 72 260 319 276 207 244 32 316 239 210 194 216 166 161 171 229 210 213 242 223 250 207 262 87 96 155 131 198 188 238 161 144 124 235 208 204 213 35 248 186 128 174 145 227 166 144 103 137 245 257 11 251 115 185 263 260 263 290 268 173 164 175 174 172 183 193 193 188 189 182 182 173
172 169 28 301 356 181 160 225 211 211 215 250 70 321 128 306 170 229 183 197 213 186 193 203 208 209 244 223 186 221 188 248 192 226 230 233 238 210 247 6 237 65 96 301 32 247 79 116 214 268 305 312 321 303 5 46 101 354 333 58 109 180 179 184 193 187 161 284 291 304 244 266 306 4 342 144 157 156 162 181 183 181 184 191 177 173 174 166
80 118 111 230 92 355 172 200 210 213 226 291 206 250 164 213 171 204 188 215 191 183 206 213 354 199 239 194 196 231 168 262 216 230 243 221 252 105 353 31 258 196 157 230 162 235 132 257 176 216 276 332 342 354 4 341 52 154 210 238 142 105 88 153 92 61 188 216 211 172 250 241 338 28 4 123 141 164 180 182 152 167 196 184 179 176 171 171
106 22 71 92 75 231 200 211 216 194 218 222 208 226 229 255 225 209 174 208 203 203 137 234 214 161 222 178 212 212 197 211 271 231 222 223 233 7 334 52 320 211 316 331 138 12 197 186 141 198 229 238 242 215 228 231 222 222 231 86 246 136 150 121 219 195 229 197 202 201 251 271 24 20 25 113 159 179 104 125 224 197 183 180 183 181 179 177
165 193 174 79 212 258 271 79 0 216 208 206 222 229 219 234 249 191 187 233 205 228 219 234 309 201 224 180 212 210 232 230 210 242 176 235 266 330 252 333 64 228 238 163 157 88 173 224 217 224 224 239 240 192 240 112 86 162 262 164 226 180 219 171 129 171 208 323 259 240 234 307 273 238 241 244 270 207 207 210 215 217 212 199 184 181 183 185
31 140 163 179 140 248 247 212 208 196 218 171 220 169 225 221 224 297 179 226 204 211 236 217 207 202 221 212 220 239 219 235 232 236 227 195 253 229 305 114 323 295 308 93 247 75 106 233 229 221 239 256 113 178 188 123 157 222 180 262 235 223 201 181 204 220 103 180 253 242 231 199 247 244 203 207 219 236 239 227 231 230 215 195 189 180 184 191
156 250 136 219 162 201 212 230 211 207 245 206 235 210 232 204 203 220 173 221 151 192 202 319 223 222 221 206 204 232 207 230 203 231 196 190 135 299 337 303 85 304 6 255 3 169 164 217 249 176 253 176 116 141 185 107 201 223 235 246 258 234 179 200 216 213 174 217 251 248 210 216 254 244 159 186 200 216 213 220 215 211 200 176 168 177 184 195
126 327 201 308 172 265 217 173 182 196 217 196 257 232 247 230 221 212 177 175 186 242 199 229 222 221 217 191 189 237 199 235 237 229 192 208 187 164 232 318 273 228 140 329 333 313 104 230 200 143 207 97 115 147 186 159 222 256 246 246 241 248 229 160 202 227 217 233 250 263 272 256 242 264 226 207 209 201 223 215 138 176 186 183 172 178 183 193
210 151 262 2 70 318 302 171 183 193 223 207 226 217 233 234 242 229 272 167 237 249 214 230 231 218 202 207 211 229 221 224 216 240 209 190 293 184 228 197 163 355 166 208 187 266 134 277 100 313 145 290 7 135 90 109 128 240 266 256 252 238 132 181 216 235 252 273 262 263 266 270 267 191 199 236 190 185 116 173 195 190 168 165 167 177 188 192
225 118 144 112 200 247 71 186 180 189 209 209 224 231 232 213 238 211 240 196 185 220 210 218 227 222 244 219 215 230 230 222 204 214 184 187 216 209 152 271 134 165 171 200 230 296 66 240 53 121 109 293 231 109 71 60 32 254 276 269 257 239 238 225 225 208 205 228 242 255 257 254 262 126 39 133 157 165 182 187 167 172 168 157 165 179 180 191
75 310 92 98 105 249 177 229 134 159 217 211 207 204 214 216 228 167 248 235 199 206 197 201 214 163 242 193 224 227 233 227 194 156 152 170 127 72 55 160 145 169 189 199 311 138 180 142 131 151 163 228 191 120 142 54 350 303 260 254 249 228 230 249 246 211 213 206 210 224 240 246 256 265 211 256 180 205 182 182 170 175 179 166 167 176 190 196